Wind_Speed
21 21 19 19 19 21 23 25 26 27 28 28 28 27 25 25 25 27 27 26 25 27 31 34 36 36 34 31 31 29 26 22 14 23 24 27 30 31 35 38 32 31 31
21 21 22 22 23 23 24 24 25 27 27 28 27 27 27 27 27 27 26 26 26 25 22 26 28 28 33 35 34 31 30 29 25 21 26 25 28 24 25 27 28 28 29
20 20 22 23 23 23 23 24 25 26 27 27 28 31 31 31 30 30 28 26 27 32 29 28 27 31 31 30 31 33 31 30 29 24 23 21 24 24 22 24 26 27 26
17 18 20 21 21 22 23 24 26 26 27 29 31 31 30 31 31 28 33 35 33 27 28 26 27 26 30 33 30 31 33 31 30 25 21 19 20 22 22 20 22 24 26
15 16 18 19 21 22 24 25 27 26 27 29 29 27 30 30 26 31 31 29 32 32 32 30 30 30 31 34 34 30 29 28 25 22 20 17 18 19 19 18 20 24 25
12 14 17 20 22 23 24 26 26 28 30 30 27 32 31 25 27 31 36 37 32 32 31 31 30 29 28 30 34 36 37 31 29 24 21 17 19 18 19 19 18 16 9
11 15 17 21 23 23 26 27 27 29 27 31 32 32 27 30 30 32 33 33 32 29 31 28 31 27 30 32 34 37 36 35 39 33 25 25 21 20 18 20 19 19 23
13 16 19 22 23 25 27 27 27 27 31 31 29 30 30 28 33 35 31 33 33 31 32 33 33 32 29 32 34 36 37 33 34 41 34 35 31 26 25 24 23 27 29
15 17 20 22 23 25 28 23 30 29 29 29 26 31 30 33 31 35 37 33 30 34 33 34 34 30 35 35 34 35 38 37 33 40 39 38 32 25 22 23 20 18 20
16 18 20 21 23 24 21 31 28 29 26 28 30 30 28 30 33 34 36 35 34 32 34 35 38 37 37 38 36 34 33 35 28 26 31 31 27 23 22 26 25 21 18
16 19 20 21 22 19 27 26 29 26 30 29 29 29 30 29 34 36 38 37 32 35 36 39 40 41 43 44 42 39 39 38 33 34 30 26 23 23 23 26 26 27 24
16 18 20 21 21 24 26 27 26 27 28 27 30 31 29 32 31 36 38 38 39 38 38 41 46 48 49 51 50 44 41 41 31 25 20 18 19 20 22 27 27 28 31
16 18 20 19 22 25 24 24 26 25 25 27 28 29 32 32 34 35 37 39 41 40 42 48 55 54 51 48 43 38 29 24 19 14 14 16 19 17 20 20 19 24 29
15 17 18 19 22 23 21 23 23 24 26 25 27 28 31 33 31 36 38 39 40 41 47 52 52 47 41 29 19 13 18 15 14 15 15 17 13 16 16 16 18 20 21
14 16 18 20 22 21 21 21 23 22 24 28 27 28 31 29 34 41 42 42 42 44 51 43 38 21 12 8 2 4 8 10 11 12 11 10 11 10 11 11 15 17 15
15 17 18 21 23 23 24 25 19 20 24 25 26 28 31 30 36 40 38 38 40 41 42 35 38 21 10 7 6 6 7 7 8 7 4 3 3 3 6 8 10 13 13
13 16 18 20 24 24 23 26 31 27 22 24 27 29 30 33 36 37 34 36 34 36 33 37 37 34 28 17 1 6 3 2 5 6 6 5 6 7 6 9 10 12 13
12 14 15 21 23 23 23 23 24 27 33 34 29 30 30 33 36 33 32 33 33 34 33 35 34 35 34 24 22 19 22 22 22 22 20 17 15 12 11 12 13 12 14
12 15 18 20 22 20 22 22 23 25 25 29 32 31 31 33 32 29 29 27 27 30 32 35 33 33 34 31 23 24 24 21 22 22 21 21 22 18 14 15 15 17 18
13 14 18 19 20 22 22 22 24 23 25 26 27 30 32 33 31 29 27 26 26 27 29 30 34 30 30 30 33 23 23 19 23 22 21 21 22 21 19 18 17 16 17
13 18 15 17 21 21 22 22 22 24 24 26 27 29 31 27 26 25 26 25 25 25 26 28 29 30 29 28 27 27 25 15 20 21 22 21 21 21 23 22 20 20 19
17 12 16 18 19 22 22 21 23 23 25 26 28 29 29 25 24 25 24 26 29 25 25 24 26 26 26 30 28 23 22 22 19 20 20 20 20 23 24 24 22 20 21
10 12 15 17 19 22 23 23 23 23 25 27 28 28 27 27 26 26 27 27 28 29 26 28 25 25 25 26 25 25 22 19 16 17 17 18 19 22 23 23 22 22 22
7 12 14 17 20 21 21 25 23 24 25 26 28 28 28 28 28 28 28 28 28 29 28 26 26 27 25 23 22 20 23 17 13 13 14 16 17 19 22 24 25 27 24
6 11 14 17 19 20 24 25 25 26 25 26 28 28 29 29 29 29 28 28 28 29 30 29 29 25 23 22 21 20 18 16 19 14 15 15 16 18 21 23 25 26 26
7 11 15 16 18 20 23 24 28 26 25 27 28 29 29 30 30 31 31 29 29 30 30 27 27 27 26 26 25 23 22 19 17 17 16 18 18 18 20 22 23 25 24
Wind_Direction
41 39 36 28 22 14 11 6 4 358 355 351 349 344 338 331 327 323 321 321 322 311 296 284 274 275 267 264 264 261 256 247 253 267 270 281 287 293 286 283 287 289 288
36 32 28 22 17 13 7 360 354 355 351 349 347 345 343 338 334 329 324 318 313 310 324 320 328 303 266 259 255 254 250 252 251 260 268 270 281 287 284 286 290 293 293
27 25 20 16 14 11 6 359 354 351 348 346 343 341 339 337 333 330 324 330 325 317 308 309 308 313 311 298 258 247 248 250 245 249 260 259 270 280 280 280 283 289 290
24 24 20 14 7 359 354 351 349 346 343 340 337 334 334 333 330 326 325 324 327 323 318 313 308 304 304 295 302 278 248 236 238 235 241 251 266 274 272 271 279 282 285
27 22 13 3 357 353 349 346 344 342 339 336 332 333 330 325 323 324 330 334 328 320 314 308 303 304 301 297 287 290 281 240 220 225 234 242 247 264 263 271 270 285 282
24 18 5 356 351 348 345 344 342 340 337 335 335 330 324 328 331 324 324 324 322 315 308 308 307 306 305 306 301 291 278 267 244 224 233 235 242 243 252 259 267 276 286
21 10 0 353 347 346 344 341 339 339 342 336 329 328 330 331 327 328 327 323 320 320 314 310 307 304 306 309 309 300 286 278 267 242 233 233 240 235 243 254 257 261 267
19 8 358 350 345 344 342 341 344 343 338 337 336 331 330 330 327 324 328 327 316 314 311 305 300 298 301 306 306 307 292 285 271 249 239 246 246 244 239 246 256 268 272
15 4 355 347 345 343 342 351 343 339 337 331 336 330 328 325 329 329 326 322 318 313 311 307 299 303 301 300 300 300 296 282 274 252 243 249 254 248 252 250 238 247 268
9 359 351 347 345 341 349 346 341 335 333 335 329 326 327 326 327 328 327 322 315 311 313 310 305 299 296 295 292 292 289 278 260 237 232 240 242 245 246 250 248 242 255
359 352 345 345 343 341 342 343 338 338 333 330 327 327 327 328 327 328 327 323 319 316 310 306 303 300 295 290 288 282 278 279 266 231 220 223 226 233 244 252 254 253 251
353 347 343 344 346 344 341 338 340 334 330 330 328 326 329 329 330 328 327 323 320 317 311 304 299 297 292 289 286 281 276 277 240 205 201 211 224 239 254 258 257 257 256
352 345 343 342 341 341 339 342 335 335 332 329 327 327 327 331 328 328 325 325 323 316 309 304 298 293 290 288 283 279 266 212 193 192 206 218 237 253 257 254 258 264 265
351 342 341 341 339 338 340 339 335 333 332 329 331 330 331 327 330 328 329 328 325 321 317 313 305 295 291 293 273 230 185 197 205 211 218 229 248 243 246 257 262 264 262
344 337 339 339 339 337 335 336 333 331 332 332 332 331 327 328 330 331 331 330 328 326 323 322 329 308 268 317 284 195 205 217 225 232 227 235 238 241 254 267 268 271 259
338 338 340 342 340 334 330 329 335 333 333 334 334 333 332 330 332 334 333 334 335 336 333 339 347 337 345 275 240 205 212 225 226 220 198 196 236 265 281 293 295 287 274
337 337 343 342 337 332 333 333 331 334 336 335 337 339 339 337 338 338 339 340 343 347 347 347 357 358 13 16 17 141 108 60 114 119 104 94 51 12 350 337 325 308 292
337 340 339 335 335 334 338 335 333 332 330 332 338 341 341 342 342 342 345 346 348 353 351 348 356 359 2 4 30 51 65 59 49 44 38 39 30 27 5 345 330 313 307
337 338 337 336 338 335 338 337 333 329 325 327 331 338 340 340 342 345 347 350 347 347 348 350 350 357 2 9 25 41 46 57 54 46 34 25 18 8 359 350 337 331 327
338 338 336 338 340 338 341 338 335 332 330 330 332 332 334 338 340 340 343 344 344 343 344 346 347 353 360 6 5 19 27 46 45 38 27 20 16 11 358 347 339 335 332
333 333 342 340 340 340 336 334 335 332 329 330 330 331 332 333 331 332 333 336 337 338 339 342 344 349 355 358 2 3 359 43 34 26 20 19 13 3 4 356 339 336 335
331 341 341 340 339 337 335 334 332 330 330 329 330 332 337 335 331 328 326 327 335 334 334 338 338 342 348 354 353 3 9 16 21 15 13 10 9 6 5 0 348 343 339
336 343 337 337 338 338 339 337 332 329 330 330 331 331 335 336 332 331 328 325 327 329 330 331 334 333 341 344 352 2 354 350 356 358 3 4 4 4 1 357 350 347 342
342 338 334 337 339 338 339 337 332 330 329 329 330 331 331 329 327 325 323 325 323 325 324 324 321 318 322 330 330 344 5 4 349 353 355 358 358 356 354 357 357 354 344
341 332 331 338 336 336 336 336 333 330 329 329 329 329 329 327 325 323 324 323 322 320 320 317 316 317 317 316 311 314 323 350 2 345 345 348 348 347 350 352 354 352 352
332 324 330 331 333 333 335 334 333 330 328 328 328 327 327 325 326 326 324 323 320 316 314 311 309 306 303 300 298 298 301 309 331 331 330 335 337 339 343 343 345 350 347
Height
850 850 848 847 846 844 843 842 840 837 835 832 829 825 823 819 816 812 808 804 800 797 793 789 785 784 782 781 780 779 778 776 773 772 773 770 770 770 771 770 769 767 767
852 851 849 847 846 845 844 843 840 838 835 832 829 825 822 818 813 809 805 801 796 793 789 785 783 780 773 771 770 769 768 768 767 764 765 765 764 765 765 764 763 762 761
852 851 850 849 848 847 845 843 840 837 834 831 827 823 819 815 811 807 802 798 794 790 785 782 777 777 771 767 761 757 757 757 757 757 756 757 757 759 759 758 758 756 755
854 853 852 851 849 847 845 842 839 836 832 829 825 821 817 813 808 804 799 794 789 785 781 777 773 770 765 762 758 753 747 745 747 748 749 749 749 751 752 752 751 752 750
855 854 853 851 849 846 844 841 838 835 831 827 823 819 815 811 806 802 797 791 786 780 775 771 767 763 759 755 752 747 745 737 736 738 739 741 741 742 744 744 744 744 742
855 854 852 850 848 845 842 839 835 832 828 824 819 815 810 807 804 799 794 787 781 775 769 763 759 755 751 748 744 741 738 735 728 727 729 730 732 735 736 736 737 738 736
853 852 851 849 847 844 840 836 833 829 824 821 815 811 807 803 799 794 789 783 776 770 764 758 752 748 744 740 735 730 726 722 721 719 717 718 723 726 729 730 731 731 729
852 851 849 847 845 842 839 834 830 827 822 817 813 809 804 799 795 789 783 777 770 765 759 753 746 740 736 733 727 720 715 711 709 707 707 708 712 716 719 723 724 723 721
851 850 848 846 843 840 837 832 829 824 820 815 811 806 801 795 790 785 778 770 763 756 751 745 738 732 728 725 720 714 706 700 698 696 697 703 705 707 711 715 716 718 712
850 849 848 845 842 839 835 831 828 824 818 814 808 804 798 792 786 781 774 767 758 749 742 736 730 725 718 714 712 706 699 690 690 689 690 694 697 699 703 707 709 709 708
849 848 847 844 841 838 834 831 826 821 816 810 804 799 794 789 781 776 770 762 754 744 736 725 717 712 706 700 697 693 687 684 681 681 682 685 689 692 694 698 700 701 701
848 847 845 842 840 836 832 828 824 819 813 807 800 793 789 784 778 772 764 757 749 740 729 717 706 696 689 682 678 672 671 670 669 670 674 678 682 685 686 690 691 691 691
846 846 844 841 838 835 831 826 822 817 811 805 798 791 784 779 773 766 759 751 742 733 722 707 693 679 670 663 656 653 656 659 661 665 670 673 676 677 681 682 683 684 683
845 844 842 839 836 833 830 826 821 816 810 804 797 790 783 776 770 762 753 744 734 723 710 690 674 662 655 647 644 645 649 655 659 664 666 669 670 673 675 676 676 677 675
843 843 839 836 833 831 827 824 820 816 812 805 799 792 784 774 768 761 753 742 732 720 703 684 666 654 650 650 649 650 652 656 659 661 663 665 668 670 670 671 671 670 668
842 840 838 834 832 828 822 818 817 813 808 804 799 792 783 777 768 759 750 741 730 718 701 688 672 657 652 652 652 653 655 656 658 660 662 664 666 666 667 666 666 664 662
840 838 835 833 830 825 821 815 804 802 803 799 794 787 781 773 764 756 748 739 730 719 709 694 683 673 664 655 653 655 658 659 661 662 663 664 665 665 664 663 661 660 656
838 836 834 831 828 823 820 815 810 802 792 787 787 783 776 770 762 754 747 738 728 720 715 706 696 687 679 671 667 665 665 666 666 667 665 666 666 666 664 662 660 657 653
836 834 831 828 825 822 818 814 809 803 798 790 781 776 772 767 760 754 748 743 736 729 721 713 705 698 691 685 680 677 675 674 673 672 672 671 669 667 665 662 659 655 650
833 831 829 825 822 819 816 811 807 802 797 790 783 777 769 763 756 751 748 743 739 733 727 721 713 707 700 695 689 685 681 680 678 678 676 674 672 670 667 663 659 654 649
831 828 826 823 820 817 813 809 806 801 795 789 783 777 772 766 759 754 748 744 739 735 730 724 719 713 707 701 697 692 687 685 683 682 680 677 674 672 669 664 660 655 649
828 825 823 821 818 815 812 808 804 799 794 787 780 775 770 764 759 753 748 743 738 734 730 726 721 716 712 706 701 697 693 690 688 685 683 680 677 673 669 666 661 656 649
824 823 821 819 817 813 809 806 802 797 792 786 779 773 767 762 757 751 746 740 735 731 727 723 719 715 712 709 704 700 697 693 690 688 684 682 678 674 671 668 663 656 650
821 821 819 817 814 811 807 803 800 795 790 784 778 772 766 760 754 748 743 737 732 727 723 719 716 713 710 707 704 701 697 694 691 688 685 682 680 676 672 668 664 658 653
819 818 816 814 811 808 805 801 797 793 788 782 776 770 764 758 751 745 739 734 728 723 718 714 711 708 705 703 701 699 696 693 690 688 685 683 680 676 672 668 665 660 655
816 815 813 811 809 806 802 799 795 790 785 780 774 768 762 755 749 742 736 730 724 718 713 708 704 702 699 697 695 694 692 691 689 687 684 682 679 675 672 668 666 661 657